Regional Weather Roundup
Issued by NWS San Angelo, TX

Home | Current Version | Previous Version | Text Only | Print | Product List | Glossary On
Versions: 1 2 3 4 5 6 7 8 9 10 11 12 13 14 15 16 17 18 19 20 21 22 23 24 25 26 27 28 29 30 31 32 33 34 35 36 37 38 39 40 41 42 43 44 45 46 47 48 49 50
000
ASUS44 KSJT 272058
RWRSJT
WEST CENTRAL TEXAS REGIONAL WEATHER ROUNDUP
NATIONAL WEATHER SERVICE SAN ANGELO TX
400 PM CDT THU APR 27 2017

NOTE: "FAIR" INDICATES FEW OR NO CLOUDS BELOW 12,000 FEET WITH NO
SIGNIFICANT WEATHER AND/OR OBSTRUCTIONS TO VISIBILITY.

TXZ049-054-064>066-071>073-076>078-098-099-113-114-127-128-139-140-
154-155-168>170-272200
...LOCATIONS ACROSS WEST CENTRAL TEXAS...

CITY           SKY/WX    TMP DP  RH WIND       PRES   REMARKS
SAN ANGELO     SUNNY     90  38  16 S21G31    29.56F
ABILENE        SUNNY     87  40  19 S17G32    29.54F
DYESS AFB      NOT AVBL
JUNCTION       SUNNY     85  52  32 S15G32    29.64F
SWEETWATER     NOT AVBL
BROWNWOOD      NOT AVBL
COLEMAN        NOT AVBL
SONORA         NOT AVBL
OZONA          NOT AVBL
BRADY          NOT AVBL
$$

TEXAS PANHANDLE/OKLAHOMA PANHANDLE

CITY           SKY/WX    TMP DP  RH WIND       PRES   REMARKS
AMARILLO       CLOUDY    73  34  23 S12       29.48F
BORGER         CLOUDY    76  31  19 W16G30    29.44F
CANADIAN       NOT AVBL
DALHART        MOSUNNY   74  32  21 W31G41    29.47S
DUMAS          NOT AVBL
GUYMON         NOT AVBL
HEREFORD       NOT AVBL
PAMPA          NOT AVBL
PERRYTON       NOT AVBL
$$

SOUTHERN PANHANDLE/SOUTH PLAINS/ROLLING PLAINS

CITY           SKY/WX    TMP DP  RH WIND       PRES   REMARKS
LUBBOCK        MOSUNNY   87  27  11 SW29      29.48F
SNYDER         NOT AVBL
CHILDRESS      MOSUNNY   80  40  23 S22G31    29.47F
SEMINOLE       NOT AVBL
$$

PERMIAN BASIN

CITY           SKY/WX    TMP DP  RH WIND       PRES   REMARKS
MIDLAND        CLOUDY    91  30  11 SW25G38   29.55F
ODESSA         CLOUDY    89  26  10 W25G38    29.56F
WINK           SUNNY     91  31  11 SW20G36   29.54F
$$

FAR WEST/SOUTHWEST MOUNTAINS/TRANS PECOS

CITY           SKY/WX    TMP DP  RH WIND       PRES   REMARKS
ALPINE         NOT AVBL
DRYDEN         NOT AVBL
EL PASO        PTSUNNY   86  30  13 W26G47    29.65F
FORT STOCKTON  SUNNY     94  33  11 SW15G33   29.56F
GUADALUPE PASS SUNNY     79  30  16 W48G63    29.68S
MARFA          NOT AVBL
PECOS          NOT AVBL
$$

DALLAS/FORT WORTH METROPLEX

CITY           SKY/WX    TMP DP  RH WIND       PRES   REMARKS
DFW AIRPORT    MOSUNNY   75  47  36 SE21G28   29.65F
FTW MEACHAM    SUNNY     77  50  38 SE22G30   29.64F
DAL-EXECUTIVE  SUNNY     73  49  42 SE16G24   29.67F
GRAND PRAIRIE  SUNNY     73  46  38 SE14G23   29.69F
ADDISON        SUNNY     73  46  38 SE17G30   29.66F
MESQUITE       CLEAR     73  50  43 SE15G21   29.69F
LANCASTER      NOT AVBL
$$

NORTH CENTRAL TEXAS

CITY           SKY/WX    TMP DP  RH WIND       PRES   REMARKS
SHRMAN/DENISON NOT AVBL
GAINESVILLE    NOT AVBL
BRIDGEPORT     NOT AVBL
DENTON         SUNNY     73  48  41 SE18G25   29.65F
WAXAHACHIE     NOT AVBL
GRANBURY       NOT AVBL
$$

WESTERN NORTH TEXAS

CITY           SKY/WX    TMP DP  RH WIND       PRES   REMARKS
WICHITA FALLS  SUNNY     77  45  32 S23G31    29.57F
VERNON         NOT AVBL
BRECKENRIDGE   NOT AVBL
COMANCHE       NOT AVBL
$$

CENTRAL AND SOUTH CENTRAL TEXAS

CITY           SKY/WX    TMP DP  RH WIND       PRES   REMARKS
AUSTIN/BERGSTM CLOUDY    84  49  29 S15       29.68F
WACO           SUNNY     78  50  37 S16       29.69F
HILLSBORO      NOT AVBL
TEMPLE         SUNNY     78  51  38 S14G22    29.70F
KILLEEN-GRAY   NOT AVBL
FORT HOOD      NOT AVBL
GEORGETOWN     SUNNY     82  46  28 S14       29.69F
LAGO VISTA     NOT AVBL
SAN MARCOS     SUNNY     81  50  34 S12       29.70F
NEW BRAUNFELS  MOSUNNY   82  51  34 S8G20     29.68F
RANDOLPH AFB   NOT AVBL
SAN ANTONIO    PTSUNNY   83  48  29 S15       29.69F
STINSON        SUNNY     87  48  25 SE13      29.67F
PLEASANTON     NOT AVBL
LA GRANGE      NOT AVBL
GIDDINGS       NOT AVBL
$$

EAST TEXAS

CITY           SKY/WX    TMP DP  RH WIND       PRES   REMARKS
PARIS          NOT AVBL
CLARKSVILLE    NOT AVBL
TYLER          SUNNY     75  49  39 S12       29.71F
LONGVIEW       SUNNY     74  54  49 SE8       29.73F
PALESTINE      NOT AVBL
NACOGDOCHES    NOT AVBL
$$

TEXAS HILL COUNTRY AND EDWARDS PLATEAU

CITY           SKY/WX    TMP DP  RH WIND       PRES   REMARKS
LLANO          NOT AVBL
HORSESHOE BAY  NOT AVBL
KERRVILLE      NOT AVBL
FREDERICKSBRG  NOT AVBL
ROCKSPRINGS    NOT AVBL
HONDO          SUNNY     86  49  27 SE12G20   29.68F
UVALDE         NOT AVBL
DEL RIO        SUNNY     86  50  28 SE21G30   29.62F
$$

SOUTHEAST TEXAS

CITY           SKY/WX    TMP DP  RH WIND       PRES   REMARKS
COLLEGE STN    SUNNY     81  49  32 S12G18    29.71F
CALDWELL       NOT AVBL
CROCKETT       NOT AVBL
BRENHAM        NOT AVBL
HUNTSVILLE     SUNNY     81  46  29 MISG      29.72F
CONROE         SUNNY     80  51  36 S12       29.72F
HOUSTON BUSH   MOSUNNY   79  50  36 S12G17    29.73F
HOUSTON HOBBY  MOSUNNY   77  55  46 E8        29.72F
PERLAND        SUNNY     80  57  45 SE9       29.74F
WHARTON        NOT AVBL
$$

THE UPPER TEXAS COAST

CITY           SKY/WX    TMP DP  RH WIND       PRES   REMARKS
ORANGE         NOT AVBL
PORT ARTHUR    SUNNY     80  54  40 NE8       29.72F
GALVESTON      SUNNY     76  62  62 E13       29.74F
ANGLETON       SUNNY     80  62  54 E9        29.73F
BAY CITY       NOT AVBL
$$

TEXAS COASTAL BEND, RIO GRANDE PLAINS DEEP SOUTH TEXAS

CITY           SKY/WX    TMP DP  RH WIND       PRES   REMARKS
VICTORIA       SUNNY     82  63  52 SE16      29.70F
BEEVILLE       NOT AVBL
ROCKPORT       PTSUNNY   79  62  56 E13       29.71F
PORT ARANSAS   NOT AVBL
PORT LAVACA    NOT AVBL
CORPUS CHRISTI MOSUNNY   80  66  62 E15       29.70F
KINGSVILLE NAS NOT AVBL
COTULLA        SUNNY     92  55  28 S17G26    29.63F
LAREDO         NOT AVBL
BROWNSVILLE    PTSUNNY   87  72  60 E15G22    29.67F
PORT ISABEL    CLOUDY    83  72  69 E16       29.68F
HEBBRONVILLE   NOT AVBL
MCALLEN        SUNNY     95  70  44 E14G22    29.64F
WESLACO        NOT AVBL
FALFURRIAS     NOT AVBL
EDINBURG       NOT AVBL
$$




USA.gov is the U.S. government's official web portal to all federal, state and local government web resources and services.